IW1RID-3 Weather Reports


time (UTC)temp
C
wind
direction
speed
KPH
gust
KPH
rain 1hr
cm
rain 24hr
cm
rain mn
cm
humidity
%
barometer
mb
20260506212717 14 0.0 0.0 0.00 0.00 0.00 79 1067.9
20260506210712 13 0.0 0.0 0.00 0.00 0.00 85 1068.0
20260506204706 14 0.0 0.0 0.00 0.00 0.00 82 1068.0
20260506202701 14 0.0 0.0 0.00 0.00 0.00 82 1067.9
20260506200656 15 0.0 0.0 0.00 0.00 0.00 79 1067.7
20260506194652 15 0.0 0.0 0.00 0.00 0.00 79 1067.5
20260506190641 17 0.0 0.0 0.00 0.00 0.00 71 1066.8
20260506184636 17 0.0 0.0 0.00 0.00 0.00 69 1066.5
20260506184547 17 0.0 0.0 0.00 0.00 0.00 69 1066.5
20260506182541 18 0.0 0.0 0.00 0.00 0.00 69 1066.4
20260506180535 18 0.0 0.0 0.00 0.00 0.00 64 1066.3
20260506172525 20 0.0 0.0 0.00 0.00 0.00 61 1066.4
20260506170518 20 0.0 0.0 0.00 0.00 0.00 60 1066.2
20260506164513 22 0.0 0.0 0.00 0.00 0.00 52 1066.4
20260506162509 22 0.0 0.0 0.00 0.00 0.00 51 1066.3
20260506160503 21 0.0 0.0 0.00 0.00 0.00 53 1066.5
20260506154457 22 0.0 0.0 0.00 0.00 0.00 50 1066.5
20260506152451 22 0.0 0.0 0.00 0.00 0.00 49 1066.5
20260506150446 23 0.0 0.0 0.00 0.00 0.00 49 1066.8
20260506144440 23 0.0 0.0 0.00 0.00 0.00 51 1067.0
20260506142435 21 0.0 0.0 0.00 0.00 0.00 56 1067.4
20260506140429 20 0.0 0.0 0.00 0.00 0.00 61 1066.9
20260506134424 21 0.0 0.0 0.00 0.00 0.00 60 1067.6
20260506132416 20 0.0 0.0 0.00 0.00 0.00 63 1067.8
20260506122357 20 0.0 0.0 0.00 0.00 0.00 64 1067.4
20260506120351 18 0.0 0.0 0.00 0.00 0.00 66 1067.4
20260506114342 18 0.0 0.0 0.00 0.00 0.00 68 1067.5
20260506112336 18 0.0 0.0 0.00 0.00 0.00 68 1067.3
20260506110331 18 0.0 0.0 0.00 0.00 0.00 69 1067.3
20260506104326 18 0.0 0.0 0.00 0.00 0.00 66 1067.5
20260506102320 18 0.0 0.0 0.00 0.00 0.00 70 1067.5
20260506100316 18 0.0 0.0 0.00 0.00 0.00 68 1067.5
20260506094310 18 0.0 0.0 0.00 0.00 0.00 68 1067.2
20260506092306 18 0.0 0.0 0.00 0.00 0.00 68 1067.2
20260506090258 18 0.0 0.0 0.00 0.00 0.00 71 1067.0
20260506084251 17 0.0 0.0 0.00 0.00 0.00 72 1066.8
20260506082247 16 0.0 0.0 0.00 0.00 0.00 79 1066.6
20260506080241 16 0.0 0.0 0.00 0.00 0.00 80 1066.6
20260506072231 15 0.0 0.0 0.00 0.00 0.00 83 1066.5
20260506070227 14 0.0 0.0 0.00 0.00 0.00 89 1066.5
20260506062215 13 0.0 0.0 0.00 0.00 0.00 89 1066.3
20260506060210 13 0.0 0.0 0.00 0.00 0.00 92 1066.3
20260506050153 12 0.0 0.0 0.00 0.00 0.00 93 1065.8
20260506044147 12 0.0 0.0 0.00 0.00 0.00 92 1065.7
20260506042142 12 0.0 0.0 0.00 0.00 0.00 93 1065.7
20260506040136 12 0.0 0.0 0.00 0.00 0.00 94 1066.1
20260506034131 12 0.0 0.0 0.00 0.00 0.00 90 1066.4
20260506032126 12 0.0 0.0 0.00 0.00 0.00 93 1067.0
20260506030120 13 0.0 0.0 0.00 0.00 0.00 85 1066.7
20260506024115 12 0.0 0.0 0.00 0.00 0.00 89 1065.9
20260506022110 12 0.0 0.0 0.00 0.00 0.00 89 1066.1
20260506020105 12 0.0 0.0 0.00 0.00 0.00 90 1066.5
20260506014100 13 0.0 0.0 0.00 0.00 0.00 89 1066.7
20260506012056 13 0.0 0.0 0.00 0.00 0.00 85 1066.6
20260506010049 13 0.0 0.0 0.00 0.00 0.00 88 1066.7
20260506004043 13 0.0 0.0 0.00 0.00 0.00 91 1066.5
20260506002038 13 0.0 0.0 0.00 0.00 0.00 92 1067.4
20260506000034 13 0.0 0.0 0.00 0.00 0.00 93 1067.8
20260505234028 13 0.0 0.0 0.00 0.00 0.00 92 1068.3
20260505232023 13 0.0 0.0 0.00 0.00 0.00 93 1069.0
20260505230018 13 0.0 0.0 0.00 0.00 0.00 89 1068.7
20260505224013 13 0.0 0.0 0.00 0.00 0.00 92 1069.1
20260505222008 13 0.0 0.0 0.00 0.00 0.00 89 1069.1
20260505220003 14 0.0 0.0 0.00 0.00 0.00 84 1068.9